This is the latest recevied weather packets stored in our database for station/object DC4XK-10. If no packets are shown the sender has not sent any weather packets the latest 10 day(s).
| Time | Temp. | Humidity | Pressure | Rain* | Wind** | Luminosity | Snow |
|---|---|---|---|---|---|---|---|
| 1777565334 | 21.11° C | 39% | 1028.2 hPa | 0 mm | 0 m/s | - | - |
| 1777564731 | 21.11° C | 38% | 1028.4 hPa | 0 mm | 0 m/s | - | - |
| 1777564131 | 20° C | 40% | 1028.6 hPa | 0 mm | 1.34 m/s, 321° | - | - |
| 1777563534 | 20° C | 40% | 1028.5 hPa | 0 mm | 0.89 m/s, 232° | - | - |
| 1777562931 | 20° C | 40% | 1028.6 hPa | 0 mm | 1.79 m/s, 289° | - | - |
| 1777562330 | 21.11° C | 37% | 1028.8 hPa | 0 mm | 0.45 m/s, 218° | - | - |
| 1777561731 | 20.56° C | 39% | 1028.9 hPa | 0 mm | 1.34 m/s, 344° | - | - |
| 1777561131 | 20° C | 36% | 1028.7 hPa | 0 mm | 1.34 m/s, 260° | - | - |
| 1777560531 | 20° C | 38% | 1028.9 hPa | 0 mm | 0.89 m/s, 270° | - | - |
| 1777559930 | 20.56° C | 36% | 1029 hPa | 0 mm | 0.89 m/s, 63° | - | - |
| 1777559331 | 21.67° C | 35% | 1029.3 hPa | 0 mm | 0.89 m/s, 327° | - | - |
| 1777558731 | 20.56° C | 37% | 1029.2 hPa | 0 mm | 0.45 m/s, 218° | - | - |
| 1777558131 | 21.11° C | 34% | 1029.3 hPa | 0 mm | 0.45 m/s, 236° | - | - |
| 1777557531 | 19.44° C | 37% | 1029.4 hPa | 0 mm | 0.45 m/s, 240° | - | - |
| 1777556931 | 19.44° C | 36% | 1029.6 hPa | 0 mm | 0 m/s | - | - |
| 1777556331 | 20° C | 35% | 1029.5 hPa | 0 mm | 0.89 m/s, 199° | - | - |
| 1777555731 | 20.56° C | 34% | 1029.6 hPa | 0 mm | 1.34 m/s, 301° | - | - |
| 1777555132 | 19.44° C | 34% | 1029.9 hPa | 0 mm | 0 m/s | - | - |
| 1777554531 | 20.56° C | 35% | 1029.8 hPa | 0 mm | 0.45 m/s, 317° | - | - |
| 1777553930 | 18.33° C | 36% | 1030 hPa | 0 mm | 1.34 m/s, 318° | - | - |
| 1777553333 | 20° C | 35% | 1030 hPa | 0 mm | 0.45 m/s, 191° | - | - |
| 1777552731 | 20° C | 34% | 1030.2 hPa | 0 mm | 0.89 m/s, 306° | - | - |
| 1777552130 | 20° C | 36% | 1030.2 hPa | 0 mm | 0 m/s | - | - |
| 1777551534 | 20° C | 36% | 1030.4 hPa | 0 mm | 0 m/s | - | - |
| 1777550931 | 18.33° C | 38% | 1030.3 hPa | 0 mm | 0 m/s | - | - |
* Rain latest hour (hover to see other rain measurements)
** Current wind speed in m/s (hover to see current wind gust speed)